TimeMST,TemperatureF,Dew PointF,Humidity,Sea Level PressureIn,VisibilityMPH,Wind Direction,Wind SpeedMPH,Gust SpeedMPH,PrecipitationIn,Events,Conditions,WindDirDegrees,DateUTC
12:58 AM,82.9,60.6,47,29.87,10.0,SE,5.8,-,N/A,,Scattered Clouds,140,2013-08-17 07:58:00
1:58 AM,82.2,61.9,50,29.86,10.0,SE,6.9,-,N/A,,Mostly Cloudy,140,2013-08-17 08:58:00
2:58 AM,82.0,59.2,46,29.85,10.0,SE,9.2,-,N/A,,Clear,140,2013-08-17 09:58:00
3:58 AM,80.4,59.5,49,29.85,10.0,SSE,9.2,-,N/A,,Scattered Clouds,150,2013-08-17 10:58:00
4:58 AM,79.9,59.0,49,29.86,10.0,SSE,9.2,-,N/A,,Clear,150,2013-08-17 11:58:00
5:58 AM,79.0,59.2,51,29.88,10.0,ESE,1.2,-,N/A,,Clear,120,2013-08-17 12:58:00
6:58 AM,82.2,58.5,44,29.88,10.0,SE,9.2,-,N/A,,Clear,130,2013-08-17 13:58:00
7:58 AM,84.9,59.2,42,30.04,10.0,SSE,10.4,-,N/A,,Clear,150,2013-08-17 14:58:00
8:58 AM,90.3,58.3,34,30.04,10.0,East,2.3,-,N/A,,Clear,80,2013-08-17 15:58:00
9:58 AM,93.2,57.0,30,30.03,10.0,NE,3.5,-,N/A,,Clear,50,2013-08-17 16:58:00
10:58 AM,97.2,55.4,25,29.86,10.0,Variable,2.3,-,N/A,,Clear,0,2013-08-17 17:58:00
11:58 AM,100.4,53.1,20,29.83,10.0,Variable,3.5,-,N/A,,Clear,0,2013-08-17 18:58:00
12:58 PM,102.7,50.7,17,29.79,10.0,WNW,10.4,-,N/A,,Clear,290,2013-08-17 19:58:00
1:58 PM,102.7,50.7,17,29.76,10.0,Variable,1.2,-,N/A,,Clear,0,2013-08-17 20:58:00
2:58 PM,103.6,50.2,17,29.74,10.0,Variable,4.6,-,N/A,,Clear,0,2013-08-17 21:58:00
3:36 PM,104.0,50.0,16,29.87,10.0,Variable,1.2,-,N/A,Thunderstorm,Thunderstorm,0,2013-08-17 22:36:00
3:52 PM,104.0,55.4,20,29.86,10.0,SE,8.1,-,N/A,Rain-Thunderstorm,Light Thunderstorms and Rain,130,2013-08-17 22:52:00
3:54 PM,102.2,53.6,20,29.87,10.0,ESE,12.7,18.4,N/A,Thunderstorm,Light Drizzle,110,2013-08-17 22:54:00
3:58 PM,100.9,52.5,20,29.72,10.0,East,19.6,23.0,0.00,Thunderstorm,Light Drizzle,90,2013-08-17 22:58:00
4:04 PM,100.4,51.8,20,29.87,10.0,East,15.0,23.0,N/A,Thunderstorm,Scattered Clouds,90,2013-08-17 23:04:00
4:05 PM,100.4,51.8,20,29.87,10.0,East,13.8,23.0,N/A,Thunderstorm,Thunderstorm,90,2013-08-17 23:05:00
4:20 PM,100.4,48.2,17,29.87,10.0,SE,13.8,26.5,N/A,Thunderstorm,Thunderstorm,140,2013-08-17 23:20:00
4:21 PM,100.4,48.2,17,29.87,10.0,SSE,19.6,26.5,N/A,Thunderstorm,Partly Cloudy,150,2013-08-17 23:21:00
4:23 PM,100.4,48.2,17,29.87,10.0,SSE,18.4,26.5,N/A,Thunderstorm,Thunderstorm,160,2013-08-17 23:23:00
4:28 PM,100.4,50.0,18,29.87,10.0,South,27.6,35.7,N/A,Thunderstorm,Thunderstorm,190,2013-08-17 23:28:00
4:31 PM,98.6,51.8,21,29.87,5.0,SSW,27.6,41.4,N/A,Rain-Thunderstorm,Light Thunderstorms and Rain,200,2013-08-17 23:31:00
4:42 PM,98.6,50.0,19,29.87,10.0,SW,16.1,-,N/A,Thunderstorm,Thunderstorm,220,2013-08-17 23:42:00
4:49 PM,98.6,50.0,19,29.86,10.0,WSW,6.9,-,N/A,,Clear,240,2013-08-17 23:49:00
4:58 PM,98.8,48.9,18,29.71,10.0,SSW,4.6,-,0.00,,Clear,210,2013-08-17 23:58:00
5:58 PM,100.2,47.1,16,29.71,10.0,SSW,13.8,-,N/A,,Partly Cloudy,200,2013-08-18 00:58:00
6:58 PM,97.9,44.8,16,29.71,10.0,SW,8.1,-,N/A,,Scattered Clouds,230,2013-08-18 01:58:00
7:58 PM,95.7,51.8,23,29.76,10.0,NNW,9.2,-,N/A,,Mostly Cloudy,340,2013-08-18 02:58:00
8:14 PM,95.0,53.6,25,29.93,10.0,ENE,16.1,24.2,N/A,Rain,Light Rain,70,2013-08-18 03:14:00
8:24 PM,93.2,53.6,26,29.93,10.0,NNW,18.4,24.2,N/A,Rain,Light Rain,340,2013-08-18 03:24:00
8:42 PM,93.2,53.6,26,29.92,10.0,North,18.4,32.2,N/A,,Scattered Clouds,360,2013-08-18 03:42:00
8:58 PM,92.5,54.0,27,29.77,10.0,North,16.1,24.2,0.00,,Mostly Cloudy,360,2013-08-18 03:58:00
9:58 PM,90.7,54.0,29,29.81,10.0,NW,12.7,-,N/A,,Scattered Clouds,320,2013-08-18 04:58:00
10:58 PM,88.2,54.5,32,29.82,10.0,NW,8.1,-,N/A,,Clear,320,2013-08-18 05:58:00
11:58 PM,88.7,53.2,30,29.81,10.0,East,8.1,-,N/A,,Mostly Cloudy,80,2013-08-18 06:58:00